QPF
0.13 0.09 0.08 0.09 0.07 0.07 0.07 0.08 0.05 0.05 0.08 0.09 0.06 0.06 0.05 0.04 0.04 0.05 0.05 0.04 0.03 0.04 0.05 0.03 0.02 0.02 0.02 0.02 0.02 0.04 0.04 0.03 0.03 0.04 0.08 0.07 0.06 0.06 0.05 0.04 0.05 0.05 0.04
0.08 0.06 0.05 0.08 0.07 0.06 0.05 0.05 0.04 0.04 0.05 0.08 0.06 0.05 0.04 0.04 0.05 0.06 0.04 0.03 0.03 0.03 0.03 0.02 0.02 0.02 0.01 0.02 0.03 0.04 0.03 0.04 0.05 0.06 0.10 0.09 0.09 0.08 0.08 0.06 0.07 0.07 0.04
0.03 0.04 0.04 0.06 0.07 0.05 0.04 0.05 0.04 0.04 0.04 0.05 0.04 0.03 0.03 0.04 0.04 0.04 0.06 0.06 0.06 0.06 0.03 0.02 0.01 0.02 0.02 0.04 0.04 0.03 0.02 0.03 0.04 0.07 0.14 0.13 0.12 0.11 0.08 0.05 0.05 0.05 0.04
0.02 0.04 0.04 0.05 0.07 0.04 0.04 0.04 0.04 0.04 0.04 0.06 0.05 0.03 0.03 0.04 0.04 0.04 0.07 0.08 0.07 0.05 0.04 0.02 0.02 0.02 0.02 0.03 0.02 0.02 0.02 0.03 0.04 0.06 0.11 0.12 0.12 0.08 0.06 0.05 0.04 0.04 0.04
0.02 0.03 0.03 0.05 0.06 0.05 0.04 0.04 0.05 0.03 0.04 0.06 0.05 0.03 0.03 0.02 0.02 0.03 0.03 0.06 0.04 0.03 0.03 0.02 0.02 0.02 0.02 0.03 0.03 0.03 0.02 0.02 0.04 0.06 0.09 0.10 0.09 0.04 0.04 0.04 0.03 0.04 0.05
0.03 0.02 0.02 0.03 0.04 0.04 0.04 0.04 0.04 0.03 0.04 0.04 0.06 0.04 0.04 0.03 0.02 0.02 0.02 0.03 0.03 0.02 0.02 0.02 0.02 0.02 0.02 0.02 0.02 0.02 0.02 0.02 0.03 0.04 0.07 0.08 0.05 0.02 0.02 0.04 0.04 0.02 0.03
0.04 0.03 0.02 0.02 0.03 0.03 0.03 0.03 0.03 0.02 0.03 0.04 0.06 0.04 0.03 0.04 0.04 0.03 0.03 0.02 0.02 0.01 0.01 0.01 0.01 0.01 0.01 0.01 0.01 0.01 0.02 0.03 0.04 0.05 0.07 0.06 0.03 0.01 0.02 0.03 0.05 0.02 0.02
0.03 0.03 0.03 0.02 0.02 0.02 0.02 0.02 0.02 0.02 0.02 0.02 0.04 0.05 0.03 0.02 0.03 0.03 0.02 0.02 0.01 0.01 0.01 0.01 0.01 0.01 0.01 0.01 0.01 0.01 0.02 0.02 0.03 0.06 0.07 0.04 0.02 0.02 0.02 0.03 0.03 0.03 0.01
0.03 0.03 0.04 0.04 0.03 0.02 0.03 0.02 0.02 0.02 0.01 0.02 0.03 0.04 0.03 0.03 0.03 0.02 0.01 0.02 0.02 0.03 0.01 0.01 0.01 0.01 0.01 0.01 0.01 0.01 0.01 0.01 0.03 0.05 0.06 0.04 0.02 0.02 0.01 0.02 0.02 0.02 0.02
0.05 0.04 0.04 0.04 0.04 0.03 0.02 0.02 0.02 0.01 0.01 0.02 0.03 0.04 0.04 0.03 0.03 0.02 0.03 0.03 0.02 0.02 0.01 0.01 0.01 0.01 0.00 0.01 0.01 0.01 0.01 0.01 0.03 0.05 0.06 0.02 0.01 0.01 0.01 0.01 0.01 0.02 0.03
0.03 0.04 0.03 0.02 0.03 0.03 0.02 0.02 0.02 0.02 0.01 0.03 0.06 0.07 0.10 0.12 0.09 0.08 0.05 0.04 0.02 0.01 0.02 0.01 0.01 0.01 0.01 0.01 0.02 0.02 0.02 0.03 0.02 0.05 0.04 0.01 0.01 0.01 0.01 0.01 0.01 0.02 0.02
0.03 0.03 0.03 0.03 0.02 0.03 0.03 0.03 0.02 0.02 0.03 0.06 0.08 0.09 0.11 0.09 0.07 0.05 0.04 0.04 0.03 0.02 0.03 0.02 0.02 0.02 0.03 0.03 0.03 0.02 0.02 0.03 0.03 0.03 0.03 0.01 0.00 0.01 0.01 0.01 0.01 0.01 0.02
0.02 0.02 0.02 0.03 0.03 0.03 0.05 0.04 0.03 0.03 0.04 0.05 0.05 0.05 0.06 0.04 0.05 0.05 0.05 0.04 0.06 0.05 0.05 0.04 0.04 0.04 0.05 0.05 0.04 0.03 0.03 0.04 0.04 0.03 0.03 0.01 0.01 0.01 0.01 0.01 0.01 0.01 0.01
0.02 0.02 0.03 0.02 0.02 0.03 0.06 0.06 0.04 0.03 0.04 0.04 0.04 0.05 0.04 0.05 0.06 0.05 0.05 0.05 0.07 0.08 0.07 0.06 0.07 0.05 0.04 0.04 0.04 0.04 0.04 0.04 0.06 0.04 0.03 0.02 0.02 0.02 0.01 0.01 0.00 0.01 0.01
0.04 0.04 0.04 0.02 0.02 0.03 0.07 0.09 0.05 0.04 0.04 0.04 0.05 0.06 0.05 0.05 0.05 0.04 0.05 0.04 0.06 0.08 0.06 0.06 0.07 0.05 0.04 0.04 0.05 0.05 0.05 0.04 0.04 0.03 0.03 0.03 0.02 0.02 0.02 0.01 0.01 0.01 0.01
0.03 0.02 0.02 0.01 0.02 0.04 0.08 0.11 0.07 0.06 0.05 0.04 0.05 0.03 0.05 0.04 0.05 0.06 0.05 0.05 0.04 0.05 0.05 0.06 0.06 0.05 0.05 0.04 0.04 0.04 0.05 0.05 0.03 0.02 0.05 0.06 0.03 0.02 0.02 0.02 0.02 0.01 0.02
0.03 0.01 0.01 0.01 0.02 0.05 0.09 0.11 0.06 0.06 0.07 0.06 0.04 0.02 0.03 0.04 0.06 0.07 0.07 0.06 0.05 0.05 0.04 0.05 0.05 0.05 0.06 0.05 0.03 0.02 0.03 0.04 0.02 0.02 0.04 0.05 0.04 0.03 0.03 0.03 0.03 0.03 0.03
0.02 0.02 0.02 0.01 0.03 0.06 0.08 0.10 0.07 0.06 0.08 0.11 0.08 0.04 0.03 0.05 0.06 0.07 0.08 0.07 0.08 0.07 0.04 0.05 0.05 0.08 0.07 0.05 0.03 0.02 0.02 0.03 0.02 0.01 0.03 0.05 0.06 0.05 0.05 0.02 0.03 0.04 0.05
0.02 0.02 0.02 0.02 0.03 0.03 0.05 0.06 0.05 0.04 0.04 0.05 0.09 0.09 0.05 0.05 0.08 0.09 0.09 0.10 0.07 0.06 0.04 0.04 0.05 0.07 0.06 0.06 0.03 0.02 0.01 0.01 0.02 0.01 0.02 0.03 0.06 0.07 0.07 0.04 0.03 0.03 0.06
0.02 0.01 0.01 0.02 0.02 0.02 0.03 0.03 0.03 0.04 0.03 0.01 0.03 0.07 0.08 0.05 0.07 0.10 0.10 0.09 0.07 0.05 0.05 0.05 0.06 0.06 0.05 0.05 0.03 0.02 0.01 0.01 0.01 0.01 0.02 0.02 0.02 0.03 0.07 0.08 0.05 0.03 0.06
0.03 0.02 0.03 0.03 0.02 0.02 0.03 0.03 0.03 0.03 0.03 0.02 0.02 0.02 0.05 0.06 0.07 0.10 0.11 0.12 0.09 0.07 0.07 0.07 0.10 0.07 0.05 0.04 0.06 0.04 0.03 0.02 0.02 0.02 0.02 0.03 0.01 0.02 0.04 0.06 0.07 0.08 0.07
0.04 0.04 0.03 0.04 0.03 0.02 0.02 0.02 0.03 0.02 0.02 0.02 0.02 0.03 0.03 0.05 0.10 0.12 0.12 0.11 0.11 0.10 0.08 0.09 0.11 0.09 0.07 0.06 0.08 0.09 0.09 0.09 0.04 0.04 0.03 0.05 0.02 0.02 0.03 0.03 0.05 0.07 0.07
0.01 0.02 0.02 0.03 0.03 0.03 0.03 0.02 0.03 0.04 0.03 0.02 0.03 0.02 0.01 0.02 0.05 0.08 0.11 0.10 0.11 0.10 0.10 0.10 0.10 0.11 0.11 0.07 0.06 0.07 0.09 0.09 0.06 0.03 0.02 0.03 0.03 0.03 0.03 0.03 0.02 0.04 0.05
0.02 0.02 0.01 0.02 0.02 0.02 0.03 0.02 0.03 0.04 0.04 0.03 0.03 0.04 0.02 0.02 0.04 0.06 0.11 0.13 0.12 0.11 0.11 0.08 0.09 0.10 0.12 0.09 0.07 0.06 0.07 0.09 0.08 0.07 0.04 0.02 0.02 0.03 0.03 0.02 0.02 0.03 0.05
0.02 0.02 0.01 0.02 0.03 0.04 0.04 0.04 0.06 0.04 0.03 0.03 0.03 0.04 0.03 0.03 0.03 0.05 0.09 0.12 0.12 0.11 0.10 0.09 0.10 0.10 0.11 0.10 0.08 0.07 0.08 0.09 0.09 0.10 0.08 0.06 0.04 0.02 0.02 0.02 0.02 0.03 0.05
0.01 0.02 0.02 0.03 0.05 0.06 0.05 0.05 0.08 0.06 0.05 0.05 0.05 0.06 0.05 0.05 0.04 0.03 0.07 0.11 0.09 0.09 0.11 0.11 0.09 0.10 0.11 0.12 0.10 0.09 0.11 0.11 0.11 0.10 0.09 0.10 0.07 0.04 0.03 0.02 0.02 0.03 0.04
MSLP
1009.76 1009.43 1009.21 1009.15 1009.27 1009.53 1009.86 1010.20 1010.49 1010.71 1010.87 1010.98 1011.11 1011.30 1011.57 1011.92 1012.33 1012.77 1013.18 1013.55 1013.85 1014.09 1014.28 1014.46 1014.63 1014.79 1014.94 1015.05 1015.11 1015.11 1015.06 1014.99 1014.92 1014.90 1014.94 1015.05 1015.22 1015.42 1015.63 1015.80 1015.93 1016.02 1016.10
1009.52 1009.36 1009.32 1009.42 1009.65 1009.96 1010.30 1010.61 1010.85 1011.01 1011.13 1011.25 1011.42 1011.68 1012.03 1012.46 1012.93 1013.37 1013.76 1014.06 1014.28 1014.43 1014.55 1014.66 1014.79 1014.93 1015.07 1015.18 1015.24 1015.24 1015.18 1015.09 1015.00 1014.96 1014.99 1015.10 1015.28 1015.50 1015.72 1015.92 1016.08 1016.20 1016.29
1009.21 1009.21 1009.33 1009.59 1009.93 1010.32 1010.68 1010.97 1011.18 1011.31 1011.41 1011.53 1011.73 1012.04 1012.44 1012.90 1013.37 1013.80 1014.13 1014.36 1014.50 1014.57 1014.62 1014.70 1014.80 1014.95 1015.10 1015.22 1015.30 1015.30 1015.24 1015.14 1015.04 1014.99 1015.01 1015.11 1015.29 1015.52 1015.76 1015.99 1016.18 1016.34 1016.46
1008.90 1009.04 1009.31 1009.70 1010.16 1010.62 1011.01 1011.31 1011.51 1011.62 1011.71 1011.84 1012.06 1012.38 1012.79 1013.25 1013.69 1014.07 1014.33 1014.49 1014.55 1014.56 1014.58 1014.63 1014.74 1014.90 1015.08 1015.23 1015.32 1015.34 1015.28 1015.17 1015.07 1015.00 1015.00 1015.10 1015.27 1015.51 1015.76 1016.02 1016.25 1016.44 1016.62
1008.69 1008.93 1009.31 1009.81 1010.36 1010.88 1011.32 1011.64 1011.84 1011.96 1012.05 1012.18 1012.40 1012.72 1013.11 1013.53 1013.93 1014.24 1014.43 1014.51 1014.52 1014.49 1014.49 1014.55 1014.68 1014.86 1015.07 1015.25 1015.36 1015.38 1015.33 1015.22 1015.10 1015.02 1015.01 1015.08 1015.25 1015.48 1015.74 1016.01 1016.27 1016.51 1016.73
1008.60 1008.91 1009.37 1009.95 1010.56 1011.13 1011.60 1011.94 1012.16 1012.28 1012.38 1012.52 1012.74 1013.04 1013.40 1013.78 1014.11 1014.35 1014.48 1014.50 1014.47 1014.43 1014.43 1014.51 1014.66 1014.88 1015.11 1015.30 1015.42 1015.45 1015.38 1015.26 1015.13 1015.03 1015.01 1015.07 1015.22 1015.43 1015.69 1015.97 1016.25 1016.52 1016.78
1008.66 1009.00 1009.50 1010.11 1010.76 1011.35 1011.85 1012.20 1012.42 1012.56 1012.68 1012.82 1013.03 1013.32 1013.64 1013.97 1014.25 1014.43 1014.50 1014.49 1014.44 1014.40 1014.42 1014.52 1014.70 1014.94 1015.18 1015.38 1015.49 1015.51 1015.43 1015.30 1015.15 1015.04 1015.00 1015.04 1015.17 1015.37 1015.61 1015.88 1016.17 1016.46 1016.74
1008.82 1009.17 1009.68 1010.29 1010.93 1011.53 1012.01 1012.37 1012.60 1012.75 1012.87 1013.02 1013.23 1013.51 1013.81 1014.10 1014.33 1014.47 1014.51 1014.48 1014.42 1014.39 1014.43 1014.55 1014.76 1015.00 1015.25 1015.43 1015.53 1015.53 1015.43 1015.29 1015.13 1015.01 1014.95 1014.98 1015.09 1015.27 1015.49 1015.74 1016.01 1016.30 1016.60
1009.00 1009.35 1009.85 1010.44 1011.06 1011.62 1012.08 1012.42 1012.64 1012.79 1012.93 1013.09 1013.31 1013.58 1013.86 1014.13 1014.32 1014.43 1014.46 1014.42 1014.37 1014.35 1014.41 1014.55 1014.76 1015.01 1015.24 1015.41 1015.49 1015.46 1015.36 1015.20 1015.04 1014.92 1014.86 1014.88 1014.97 1015.13 1015.32 1015.55 1015.80 1016.07 1016.36
1009.15 1009.49 1009.97 1010.53 1011.11 1011.63 1012.05 1012.35 1012.56 1012.71 1012.85 1013.02 1013.25 1013.52 1013.80 1014.05 1014.23 1014.32 1014.33 1014.29 1014.25 1014.24 1014.30 1014.45 1014.66 1014.90 1015.11 1015.27 1015.33 1015.30 1015.19 1015.04 1014.89 1014.77 1014.72 1014.74 1014.82 1014.96 1015.13 1015.33 1015.55 1015.79 1016.07
1009.21 1009.54 1010.00 1010.53 1011.06 1011.54 1011.91 1012.18 1012.37 1012.51 1012.65 1012.84 1013.07 1013.35 1013.63 1013.87 1014.04 1014.13 1014.13 1014.09 1014.04 1014.03 1014.10 1014.24 1014.44 1014.67 1014.87 1015.02 1015.07 1015.04 1014.95 1014.81 1014.68 1014.58 1014.55 1014.57 1014.65 1014.77 1014.92 1015.10 1015.29 1015.51 1015.76
1009.14 1009.48 1009.94 1010.44 1010.94 1011.37 1011.71 1011.95 1012.11 1012.25 1012.40 1012.59 1012.83 1013.11 1013.39 1013.63 1013.79 1013.87 1013.87 1013.82 1013.76 1013.75 1013.80 1013.93 1014.12 1014.34 1014.54 1014.68 1014.75 1014.74 1014.66 1014.56 1014.45 1014.38 1014.36 1014.39 1014.47 1014.58 1014.72 1014.87 1015.04 1015.24 1015.46
1008.95 1009.32 1009.78 1010.27 1010.75 1011.16 1011.47 1011.69 1011.84 1011.97 1012.12 1012.32 1012.57 1012.85 1013.13 1013.36 1013.52 1013.59 1013.58 1013.52 1013.45 1013.42 1013.46 1013.57 1013.75 1013.96 1014.16 1014.32 1014.41 1014.42 1014.38 1014.30 1014.22 1014.17 1014.15 1014.19 1014.26 1014.37 1014.50 1014.65 1014.80 1014.98 1015.19
1008.69 1009.07 1009.54 1010.04 1010.52 1010.92 1011.22 1011.44 1011.59 1011.72 1011.88 1012.07 1012.32 1012.60 1012.87 1013.10 1013.25 1013.31 1013.29 1013.22 1013.15 1013.11 1013.13 1013.23 1013.39 1013.59 1013.80 1013.97 1014.08 1014.12 1014.10 1014.05 1013.99 1013.94 1013.93 1013.96 1014.02 1014.12 1014.25 1014.39 1014.55 1014.72 1014.92
1008.38 1008.78 1009.27 1009.78 1010.26 1010.67 1010.98 1011.20 1011.36 1011.50 1011.66 1011.86 1012.10 1012.37 1012.63 1012.85 1013.00 1013.06 1013.04 1012.97 1012.88 1012.83 1012.84 1012.92 1013.07 1013.27 1013.47 1013.65 1013.77 1013.83 1013.83 1013.79 1013.73 1013.67 1013.65 1013.66 1013.71 1013.80 1013.92 1014.06 1014.22 1014.40 1014.59
1008.08 1008.50 1008.99 1009.50 1009.99 1010.40 1010.73 1010.98 1011.16 1011.31 1011.47 1011.67 1011.90 1012.15 1012.40 1012.60 1012.75 1012.81 1012.80 1012.73 1012.66 1012.60 1012.60 1012.67 1012.80 1012.98 1013.17 1013.35 1013.47 1013.53 1013.53 1013.48 1013.41 1013.33 1013.27 1013.25 1013.27 1013.35 1013.46 1013.60 1013.77 1013.97 1014.17
1007.84 1008.24 1008.72 1009.23 1009.71 1010.14 1010.48 1010.75 1010.95 1011.12 1011.28 1011.47 1011.68 1011.91 1012.13 1012.33 1012.47 1012.55 1012.55 1012.51 1012.45 1012.40 1012.40 1012.46 1012.57 1012.72 1012.89 1013.03 1013.14 1013.19 1013.17 1013.10 1012.99 1012.88 1012.78 1012.72 1012.72 1012.77 1012.87 1013.02 1013.20 1013.40 1013.62
1007.68 1008.05 1008.50 1008.98 1009.45 1009.87 1010.23 1010.51 1010.74 1010.92 1011.08 1011.25 1011.43 1011.63 1011.83 1012.01 1012.15 1012.24 1012.27 1012.26 1012.23 1012.20 1012.20 1012.25 1012.33 1012.45 1012.58 1012.69 1012.76 1012.78 1012.73 1012.63 1012.49 1012.34 1012.20 1012.10 1012.06 1012.09 1012.18 1012.32 1012.52 1012.74 1012.97
1007.62 1007.95 1008.34 1008.77 1009.21 1009.62 1009.98 1010.28 1010.52 1010.71 1010.87 1011.02 1011.18 1011.34 1011.51 1011.66 1011.80 1011.90 1011.96 1011.99 1012.00 1011.99 1012.00 1012.03 1012.09 1012.17 1012.25 1012.32 1012.34 1012.32 1012.24 1012.11 1011.94 1011.76 1011.59 1011.46 1011.38 1011.38 1011.46 1011.59 1011.79 1012.02 1012.26
1007.66 1007.94 1008.27 1008.63 1009.02 1009.41 1009.76 1010.07 1010.33 1010.53 1010.69 1010.82 1010.94 1011.06 1011.19 1011.32 1011.45 1011.56 1011.65 1011.72 1011.76 1011.79 1011.81 1011.83 1011.87 1011.90 1011.94 1011.95 1011.94 1011.88 1011.77 1011.61 1011.43 1011.22 1011.03 1010.87 1010.78 1010.75 1010.80 1010.92 1011.11 1011.33 1011.58
1007.79 1008.01 1008.27 1008.57 1008.90 1009.26 1009.61 1009.92 1010.19 1010.41 1010.56 1010.68 1010.77 1010.85 1010.94 1011.04 1011.15 1011.27 1011.39 1011.49 1011.57 1011.63 1011.66 1011.69 1011.70 1011.70 1011.69 1011.66 1011.61 1011.52 1011.39 1011.23 1011.04 1010.83 1010.63 1010.46 1010.34 1010.29 1010.31 1010.41 1010.57 1010.78 1011.01
1007.96 1008.15 1008.35 1008.59 1008.87 1009.19 1009.53 1009.85 1010.14 1010.37 1010.54 1010.64 1010.71 1010.76 1010.81 1010.88 1010.97 1011.09 1011.22 1011.35 1011.46 1011.55 1011.61 1011.63 1011.63 1011.61 1011.56 1011.50 1011.42 1011.32 1011.19 1011.03 1010.85 1010.65 1010.46 1010.28 1010.14 1010.06 1010.04 1010.10 1010.22 1010.40 1010.61
1008.14 1008.32 1008.47 1008.66 1008.90 1009.19 1009.52 1009.86 1010.17 1010.42 1010.61 1010.72 1010.77 1010.80 1010.82 1010.86 1010.94 1011.05 1011.19 1011.34 1011.48 1011.60 1011.67 1011.70 1011.70 1011.66 1011.59 1011.51 1011.42 1011.32 1011.20 1011.06 1010.90 1010.72 1010.54 1010.36 1010.20 1010.08 1010.02 1010.02 1010.08 1010.21 1010.38
1008.28 1008.46 1008.60 1008.76 1008.96 1009.23 1009.56 1009.91 1010.24 1010.53 1010.74 1010.87 1010.93 1010.95 1010.96 1010.98 1011.04 1011.15 1011.29 1011.46 1011.62 1011.75 1011.85 1011.89 1011.89 1011.84 1011.77 1011.69 1011.59 1011.50 1011.39 1011.28 1011.15 1011.00 1010.82 1010.64 1010.46 1010.30 1010.18 1010.11 1010.11 1010.17 1010.29
1008.33 1008.54 1008.69 1008.83 1009.01 1009.27 1009.59 1009.95 1010.31 1010.63 1010.88 1011.04 1011.12 1011.15 1011.16 1011.17 1011.23 1011.33 1011.48 1011.65 1011.83 1011.98 1012.09 1012.14 1012.14 1012.10 1012.03 1011.95 1011.86 1011.78 1011.70 1011.61 1011.51 1011.38 1011.22 1011.03 1010.82 1010.62 1010.44 1010.30 1010.22 1010.21 1010.27
1008.27 1008.53 1008.69 1008.83 1009.00 1009.25 1009.56 1009.93 1010.31 1010.66 1010.95 1011.15 1011.26 1011.32 1011.34 1011.37 1011.43 1011.53 1011.68 1011.86 1012.04 1012.20 1012.32 1012.38 1012.39 1012.35 1012.29 1012.21 1012.13 1012.07 1012.01 1011.95 1011.87 1011.77 1011.62 1011.42 1011.19 1010.95 1010.70 1010.49 1010.33 1010.25 1010.25
Thickness
5790 5789 5786 5786 5786 5785 5783 5782 5781 5779 5778 5777 5776 5776 5775 5774 5773 5772 5772 5771 5770 5769 5768 5767 5766 5766 5765 5765 5764 5764 5763 5763 5762 5762 5760 5759 5759 5758 5757 5756 5755 5754 5752
5793 5789 5786 5785 5785 5783 5782 5781 5780 5778 5777 5776 5775 5774 5774 5773 5772 5771 5770 5769 5769 5768 5767 5766 5765 5764 5764 5763 5763 5762 5762 5761 5761 5760 5759 5758 5757 5756 5756 5755 5754 5752 5751
5795 5790 5786 5785 5783 5782 5781 5780 5778 5777 5776 5776 5774 5773 5773 5772 5771 5771 5770 5769 5768 5767 5766 5765 5764 5763 5763 5762 5762 5761 5761 5761 5760 5759 5759 5758 5757 5755 5754 5754 5753 5751 5749
5797 5791 5787 5784 5782 5781 5780 5778 5777 5776 5775 5775 5773 5772 5772 5771 5770 5770 5769 5768 5767 5766 5765 5764 5763 5763 5762 5762 5761 5761 5761 5760 5760 5759 5759 5758 5756 5754 5753 5752 5751 5750 5749
5797 5791 5786 5783 5782 5780 5779 5777 5776 5775 5774 5773 5772 5771 5770 5770 5769 5768 5768 5767 5766 5765 5764 5763 5763 5762 5762 5761 5761 5761 5761 5760 5760 5760 5760 5759 5756 5754 5753 5751 5750 5749 5748
5797 5791 5785 5783 5781 5780 5778 5776 5775 5774 5773 5772 5771 5770 5769 5769 5768 5768 5767 5766 5766 5765 5764 5763 5763 5762 5762 5761 5761 5761 5761 5761 5761 5762 5761 5760 5757 5754 5753 5751 5750 5749 5747
5797 5791 5786 5782 5781 5779 5777 5775 5774 5773 5772 5771 5770 5769 5769 5768 5767 5767 5766 5766 5765 5765 5764 5764 5763 5762 5762 5762 5761 5762 5762 5762 5763 5764 5762 5760 5757 5755 5753 5751 5750 5748 5747
5798 5791 5785 5782 5781 5779 5777 5775 5773 5772 5771 5771 5770 5769 5768 5768 5767 5766 5766 5766 5765 5765 5765 5764 5764 5763 5762 5762 5762 5762 5762 5762 5765 5766 5763 5760 5757 5755 5753 5752 5750 5748 5747
5799 5793 5787 5784 5781 5778 5777 5775 5774 5773 5772 5771 5770 5769 5769 5768 5767 5767 5766 5766 5765 5765 5765 5765 5764 5764 5763 5763 5763 5763 5763 5764 5765 5765 5764 5760 5758 5756 5754 5752 5750 5748 5747
5798 5795 5790 5787 5783 5780 5778 5776 5774 5773 5772 5771 5770 5770 5769 5768 5768 5768 5767 5766 5766 5766 5766 5766 5765 5765 5764 5764 5764 5764 5764 5765 5766 5767 5764 5761 5758 5756 5754 5752 5751 5749 5747
5796 5795 5793 5791 5787 5784 5781 5778 5776 5774 5773 5772 5771 5771 5770 5770 5770 5769 5769 5768 5767 5768 5768 5767 5767 5766 5766 5766 5766 5766 5765 5766 5769 5768 5765 5762 5760 5757 5755 5753 5751 5750 5748
5792 5794 5794 5793 5791 5788 5786 5781 5778 5777 5775 5774 5773 5773 5772 5772 5772 5771 5770 5769 5769 5769 5769 5768 5768 5768 5768 5768 5768 5767 5767 5769 5770 5769 5766 5764 5761 5759 5756 5754 5752 5750 5749
5796 5795 5795 5794 5792 5790 5787 5784 5782 5780 5777 5776 5775 5774 5774 5773 5773 5772 5771 5770 5770 5770 5770 5771 5770 5770 5771 5771 5771 5770 5770 5771 5772 5770 5766 5764 5762 5760 5758 5755 5753 5751 5750
5798 5797 5796 5795 5792 5790 5788 5785 5783 5782 5779 5778 5776 5775 5775 5774 5774 5773 5773 5772 5772 5772 5772 5773 5773 5773 5773 5773 5773 5773 5772 5773 5773 5770 5767 5765 5764 5761 5759 5756 5754 5752 5751
5799 5797 5796 5794 5791 5789 5787 5785 5784 5782 5781 5779 5777 5775 5775 5775 5774 5775 5774 5773 5773 5773 5773 5773 5774 5774 5774 5774 5774 5774 5774 5774 5773 5772 5768 5766 5764 5763 5760 5758 5756 5754 5752
5800 5798 5796 5794 5791 5789 5786 5784 5783 5783 5781 5780 5778 5777 5776 5775 5775 5775 5774 5774 5773 5774 5774 5774 5774 5774 5774 5775 5775 5775 5775 5775 5775 5773 5769 5766 5765 5763 5761 5760 5758 5755 5753
5802 5800 5797 5795 5792 5789 5788 5786 5785 5784 5783 5781 5780 5778 5777 5776 5775 5775 5775 5774 5774 5775 5775 5775 5775 5775 5774 5775 5775 5776 5776 5777 5776 5775 5772 5769 5767 5764 5763 5761 5759 5757 5755
5805 5801 5799 5799 5794 5790 5788 5787 5786 5785 5784 5783 5781 5780 5778 5777 5776 5775 5776 5775 5775 5776 5776 5775 5774 5774 5773 5774 5774 5776 5777 5777 5777 5776 5775 5773 5770 5768 5765 5763 5761 5759 5757
5808 5804 5800 5799 5795 5792 5790 5788 5787 5786 5785 5784 5783 5781 5780 5779 5778 5777 5777 5777 5776 5776 5776 5776 5774 5773 5771 5772 5773 5776 5778 5778 5778 5778 5775 5774 5773 5771 5768 5765 5762 5760 5758
5811 5807 5802 5799 5797 5794 5791 5789 5788 5787 5786 5785 5784 5783 5781 5781 5780 5779 5778 5778 5778 5776 5775 5775 5773 5773 5772 5772 5773 5776 5777 5779 5779 5778 5777 5777 5775 5774 5771 5768 5764 5761 5759
5812 5807 5803 5800 5797 5794 5791 5788 5785 5784 5785 5786 5787 5785 5783 5782 5781 5779 5779 5779 5778 5776 5774 5774 5772 5771 5771 5773 5770 5769 5774 5778 5778 5778 5778 5777 5776 5775 5772 5770 5766 5764 5761
5813 5809 5805 5801 5799 5796 5794 5792 5790 5789 5788 5789 5789 5787 5785 5784 5782 5782 5779 5778 5778 5776 5774 5773 5772 5769 5769 5772 5767 5761 5759 5764 5771 5777 5776 5774 5774 5774 5772 5772 5769 5767 5764
5815 5811 5809 5805 5802 5799 5798 5795 5793 5790 5789 5788 5787 5786 5786 5785 5784 5782 5781 5780 5779 5777 5774 5773 5772 5769 5765 5769 5770 5762 5753 5751 5759 5769 5773 5773 5773 5772 5772 5772 5770 5768 5765
5820 5817 5813 5808 5804 5801 5799 5795 5791 5786 5784 5786 5786 5786 5786 5786 5784 5783 5781 5780 5779 5777 5775 5774 5773 5771 5767 5764 5766 5766 5763 5760 5752 5753 5763 5770 5772 5771 5770 5770 5769 5767 5764
5826 5821 5815 5810 5805 5802 5799 5796 5792 5788 5788 5788 5787 5785 5785 5785 5784 5783 5782 5780 5778 5776 5775 5774 5771 5769 5767 5764 5763 5762 5761 5760 5758 5750 5748 5757 5763 5768 5770 5769 5768 5766 5764
5828 5823 5817 5810 5805 5803 5799 5796 5792 5789 5787 5785 5784 5782 5782 5783 5783 5782 5781 5779 5778 5776 5774 5773 5770 5768 5766 5764 5763 5761 5758 5755 5753 5752 5748 5750 5753 5760 5766 5767 5766 5764 5763